| time (UTC) | temp F | wind direction | speed MPH | gust MPH | rain 1hr in | rain 24hr in | rain mn in | humidity % | barometer mb |
| 20260903045105 | 75 | 164 | 3.0 | 6.0 | 0.00 | 0.00 | 0.00 | 41 | 1006.4 |
| 20260903044104 | 75 | 167 | 4.0 | 9.0 | 0.00 | 0.00 | 0.00 | 41 | 1006.2 |
| 20260903043030 | 76 | 198 | 4.0 | 9.0 | 0.00 | 0.00 | 0.00 | 40 | 1006.2 |
| 20260903042049 | 76 | 190 | 4.0 | 12.0 | 0.00 | 0.00 | 0.00 | 40 | 1006.2 |
| 20260903041112 | 77 | 212 | 5.0 | 12.0 | 0.00 | 0.00 | 0.00 | 39 | 1006.2 |
| 20260903040047 | 77 | 4 | 6.0 | 11.0 | 0.00 | 0.00 | 0.00 | 39 | 1006.1 |
| 20260903035047 | 77 | 196 | 6.0 | 14.0 | 0.00 | 0.00 | 0.00 | 38 | 1006.2 |
| 20260903032958 | 78 | 4 | 6.0 | 11.0 | 0.00 | 0.00 | 0.00 | 38 | 1006.1 |
| 20260903030818 | 78 | 203 | 6.0 | 11.0 | 0.00 | 0.00 | 0.00 | 38 | 1005.9 |
| 20260903024622 | 78 | 177 | 5.0 | 14.0 | 0.00 | 0.00 | 0.00 | 37 | 1005.7 |
| 20260903023610 | 79 | 148 | 6.0 | 14.0 | 0.00 | 0.00 | 0.00 | 36 | 1005.6 |
| 20260903022545 | 79 | 4 | 6.0 | 12.0 | 0.00 | 0.00 | 0.00 | 32 | 1005.3 |
| 20260903020345 | 79 | 157 | 5.0 | 11.0 | 0.00 | 0.00 | 0.00 | 31 | 1005.3 |
| 20260903015335 | 80 | 177 | 5.0 | 11.0 | 0.00 | 0.00 | 0.00 | 30 | 1005.2 |
| 20260903013157 | 80 | 160 | 8.0 | 14.0 | 0.00 | 0.00 | 0.00 | 29 | 1005.0 |
| 20260903012153 | 81 | 166 | 5.0 | 11.0 | 0.00 | 0.00 | 0.00 | 29 | 1004.9 |
| 20260903011134 | 81 | 195 | 8.0 | 15.0 | 0.00 | 0.00 | 0.00 | 29 | 1004.9 |
| 20260903010151 | 81 | 154 | 8.0 | 15.0 | 0.00 | 0.00 | 0.00 | 29 | 1004.9 |
| 20260903005215 | 81 | 157 | 6.0 | 14.0 | 0.00 | 0.00 | 0.00 | 29 | 1004.8 |
| 20260903004152 | 82 | 144 | 7.0 | 14.0 | 0.00 | 0.00 | 0.00 | 28 | 1004.9 |
| 20260903003144 | 84 | 179 | 9.0 | 17.0 | 0.00 | 0.00 | 0.00 | 27 | 1004.8 |
| 20260903002120 | 85 | 200 | 8.0 | 17.0 | 0.00 | 0.00 | 0.00 | 27 | 1004.7 |
| 20260903001141 | 85 | 176 | 6.0 | 16.0 | 0.00 | 0.00 | 0.00 | 27 | 1004.7 |
| 20260903000110 | 85 | 175 | 8.0 | 16.0 | 0.00 | 0.00 | 0.00 | 26 | 1004.8 |
| 20260902233926 | 87 | 148 | 6.0 | 12.0 | 0.00 | 0.00 | 0.00 | 24 | 1004.9 |
| 20260902232852 | 86 | 125 | 7.0 | 15.0 | 0.00 | 0.00 | 0.00 | 23 | 1005.0 |
| 20260902231822 | 87 | 162 | 8.0 | 15.0 | 0.00 | 0.00 | 0.00 | 23 | 1005.0 |
| 20260902230751 | 88 | 4 | 6.0 | 14.0 | 0.00 | 0.00 | 0.00 | 23 | 1005.1 |
| 20260902225746 | 88 | 175 | 5.0 | 16.0 | 0.00 | 0.00 | 0.00 | 23 | 1005.2 |
| 20260902224737 | 87 | 200 | 6.0 | 17.0 | 0.00 | 0.00 | 0.00 | 24 | 1005.4 |
| 20260902223716 | 86 | 198 | 9.0 | 17.0 | 0.00 | 0.00 | 0.00 | 24 | 1005.4 |
| 20260902222655 | 88 | 169 | 7.0 | 17.0 | 0.00 | 0.00 | 0.00 | 23 | 1005.4 |
| 20260902221652 | 88 | 165 | 7.0 | 17.0 | 0.00 | 0.00 | 0.00 | 24 | 1005.6 |
| 20260902220630 | 87 | 127 | 7.0 | 13.0 | 0.00 | 0.00 | 0.00 | 24 | 1005.7 |
| 20260902215623 | 87 | 160 | 7.0 | 16.0 | 0.00 | 0.00 | 0.00 | 25 | 1005.7 |
| 20260902214612 | 88 | 146 | 9.0 | 16.0 | 0.00 | 0.00 | 0.00 | 24 | 1005.8 |
| 20260902213611 | 88 | 148 | 2.0 | 12.0 | 0.00 | 0.00 | 0.00 | 25 | 1006.0 |
| 20260902212549 | 87 | 193 | 6.0 | 18.0 | 0.00 | 0.00 | 0.00 | 26 | 1006.1 |
| 20260902210457 | 87 | 167 | 6.0 | 12.0 | 0.00 | 0.00 | 0.00 | 25 | 1006.5 |
| 20260902205430 | 86 | 210 | 4.0 | 15.0 | 0.00 | 0.00 | 0.00 | 27 | 1006.7 |
| 20260902204423 | 85 | 198 | 6.0 | 15.0 | 0.00 | 0.00 | 0.00 | 26 | 1006.9 |
| 20260902203431 | 86 | 192 | 7.0 | 13.0 | 0.00 | 0.00 | 0.00 | 26 | 1007.1 |
| 20260902202449 | 88 | 176 | 6.0 | 13.0 | 0.00 | 0.00 | 0.00 | 24 | 1007.3 |
| 20260902201447 | 87 | 197 | 5.0 | 15.0 | 0.00 | 0.00 | 0.00 | 26 | 1007.5 |
| 20260902195350 | 86 | 115 | 7.0 | 13.0 | 0.00 | 0.00 | 0.00 | 26 | 1007.9 |
| 20260902194342 | 85 | 223 | 6.0 | 12.0 | 0.00 | 0.00 | 0.00 | 25 | 1008.0 |
| 20260902193326 | 85 | 139 | 5.0 | 13.0 | 0.00 | 0.00 | 0.00 | 25 | 1008.3 |
| 20260902192347 | 85 | 117 | 6.0 | 17.0 | 0.00 | 0.00 | 0.00 | 24 | 1008.5 |
| 20260902191409 | 84 | 250 | 7.0 | 17.0 | 0.00 | 0.00 | 0.00 | 24 | 1008.5 |
| 20260902190434 | 86 | 173 | 7.0 | 14.0 | 0.00 | 0.00 | 0.00 | 23 | 1008.6 |
| 20260902185457 | 84 | 140 | 7.0 | 16.0 | 0.00 | 0.00 | 0.00 | 24 | 1008.7 |
| 20260902184427 | 85 | 4 | 7.0 | 16.0 | 0.00 | 0.00 | 0.00 | 24 | 1009.0 |
| 20260902183418 | 84 | 198 | 6.0 | 12.0 | 0.00 | 0.00 | 0.00 | 25 | 1009.0 |
| 20260902182417 | 83 | 219 | 8.0 | 14.0 | 0.00 | 0.00 | 0.00 | 25 | 1009.1 |
| 20260902181438 | 84 | 156 | 7.0 | 14.0 | 0.00 | 0.00 | 0.00 | 24 | 1009.1 |
| 20260902180421 | 84 | 4 | 5.0 | 16.0 | 0.00 | 0.00 | 0.00 | 23 | 1009.2 |
| 20260902173141 | 81 | 4 | 7.0 | 14.0 | 0.00 | 0.00 | 0.00 | 24 | 1009.5 |
| 20260902170951 | 81 | 180 | 6.0 | 12.0 | 0.00 | 0.00 | 0.00 | 30 | 1009.5 |
| 20260902165933 | 80 | 202 | 6.0 | 12.0 | 0.00 | 0.00 | 0.00 | 33 | 1009.7 |
| 20260902162647 | 78 | 156 | 6.0 | 12.0 | 0.00 | 0.00 | 0.00 | 39 | 1009.6 |
| 20260902161704 | 78 | 157 | 5.0 | 12.0 | 0.00 | 0.00 | 0.00 | 40 | 1009.6 |
| 20260902160729 | 77 | 4 | 5.0 | 12.0 | 0.00 | 0.00 | 0.00 | 41 | 1009.6 |
| 20260902155658 | 77 | 210 | 5.0 | 11.0 | 0.00 | 0.00 | 0.00 | 42 | 1009.5 |
| 20260902153516 | 77 | 160 | 4.0 | 10.0 | 0.00 | 0.00 | 0.00 | 40 | 1009.4 |
| 20260902152459 | 76 | 202 | 5.0 | 12.0 | 0.00 | 0.00 | 0.00 | 40 | 1009.4 |
| 20260902150325 | 74 | 230 | 5.0 | 11.0 | 0.00 | 0.00 | 0.00 | 44 | 1009.4 |
| 20260902145344 | 73 | 213 | 5.0 | 11.0 | 0.00 | 0.00 | 0.00 | 44 | 1009.5 |
| 20260902144346 | 73 | 215 | 6.0 | 11.0 | 0.00 | 0.00 | 0.00 | 43 | 1009.5 |
| 20260902143324 | 72 | 233 | 7.0 | 12.0 | 0.00 | 0.00 | 0.00 | 42 | 1009.4 |
| 20260902142300 | 71 | 217 | 7.0 | 14.0 | 0.00 | 0.00 | 0.00 | 41 | 1009.4 |
| 20260902141324 | 71 | 212 | 7.0 | 14.0 | 0.00 | 0.00 | 0.00 | 43 | 1009.3 |
| 20260902135209 | 68 | 201 | 5.0 | 9.0 | 0.00 | 0.00 | 0.00 | 50 | 1009.3 |
| 20260902134146 | 67 | 4 | 4.0 | 11.0 | 0.00 | 0.00 | 0.00 | 52 | 1009.3 |
| 20260902133153 | 66 | 4 | 5.0 | 11.0 | 0.00 | 0.00 | 0.00 | 53 | 1009.3 |
| 20260902132138 | 66 | 214 | 5.0 | 10.0 | 0.00 | 0.00 | 0.00 | 54 | 1008.9 |
| 20260902131120 | 66 | 194 | 5.0 | 9.0 | 0.00 | 0.00 | 0.00 | 54 | 1008.9 |
| 20260902124914 | 66 | 177 | 5.0 | 10.0 | 0.00 | 0.00 | 0.00 | 55 | 1008.6 |
| 20260902123917 | 66 | 223 | 5.0 | 9.0 | 0.00 | 0.00 | 0.00 | 55 | 1008.5 |
| 20260902122942 | 66 | 213 | 5.0 | 10.0 | 0.00 | 0.00 | 0.00 | 54 | 1008.3 |
| 20260902121930 | 66 | 216 | 6.0 | 10.0 | 0.00 | 0.00 | 0.00 | 54 | 1008.1 |
| 20260902120946 | 66 | 4 | 5.0 | 10.0 | 0.00 | 0.00 | 0.00 | 55 | 1008.1 |
| 20260902120006 | 67 | 213 | 5.0 | 10.0 | 0.00 | 0.00 | 0.00 | 55 | 1008.2 |
| 20260902114959 | 67 | 216 | 6.0 | 10.0 | 0.00 | 0.00 | 0.00 | 55 | 1008.2 |
| 20260902113954 | 67 | 213 | 6.0 | 10.0 | 0.00 | 0.00 | 0.00 | 55 | 1008.2 |
| 20260902112956 | 67 | 4 | 5.0 | 9.0 | 0.00 | 0.00 | 0.00 | 55 | 1008.2 |
| 20260902111938 | 67 | 214 | 5.0 | 8.0 | 0.00 | 0.00 | 0.00 | 56 | 1008.2 |
| 20260902110905 | 67 | 195 | 4.0 | 8.0 | 0.00 | 0.00 | 0.00 | 55 | 1008.2 |
| 20260902105920 | 68 | 4 | 5.0 | 9.0 | 0.00 | 0.00 | 0.00 | 55 | 1008.1 |
| 20260902104918 | 68 | 221 | 5.0 | 10.0 | 0.00 | 0.00 | 0.00 | 54 | 1008.1 |
| 20260902103849 | 68 | 215 | 5.0 | 10.0 | 0.00 | 0.00 | 0.00 | 54 | 1008.1 |
| 20260902100656 | 68 | 4 | 4.0 | 9.0 | 0.00 | 0.00 | 0.00 | 53 | 1008.2 |
| 20260902095645 | 68 | 173 | 5.0 | 8.0 | 0.00 | 0.00 | 0.00 | 52 | 1008.1 |
| 20260902094653 | 68 | 219 | 5.0 | 8.0 | 0.00 | 0.00 | 0.00 | 52 | 1008.2 |
| 20260902093646 | 68 | 203 | 5.0 | 9.0 | 0.00 | 0.00 | 0.00 | 52 | 1008.2 |
| 20260902091433 | 67 | 4 | 3.0 | 6.0 | 0.00 | 0.00 | 0.00 | 53 | 1008.3 |
| 20260902090428 | 67 | 214 | 4.0 | 6.0 | 0.00 | 0.00 | 0.00 | 53 | 1008.2 |
| 20260902085407 | 67 | 229 | 4.0 | 6.0 | 0.00 | 0.00 | 0.00 | 53 | 1008.2 |
| 20260902083246 | 68 | 221 | 3.0 | 6.0 | 0.00 | 0.00 | 0.00 | 51 | 1008.3 |
| 20260902082247 | 67 | 4 | 4.0 | 6.0 | 0.00 | 0.00 | 0.00 | 51 | 1008.3 |
| 20260902081223 | 68 | 215 | 3.0 | 8.0 | 0.00 | 0.00 | 0.00 | 50 | 1008.4 |
| 20260902080215 | 69 | 4 | 4.0 | 8.0 | 0.00 | 0.00 | 0.00 | 49 | 1008.4 |
| 20260902074035 | 69 | 215 | 3.0 | 6.0 | 0.00 | 0.00 | 0.00 | 49 | 1008.5 |
| 20260902073044 | 69 | 223 | 3.0 | 5.0 | 0.00 | 0.00 | 0.00 | 49 | 1008.5 |
| 20260902072020 | 69 | 214 | 3.0 | 5.0 | 0.00 | 0.00 | 0.00 | 49 | 1008.5 |
| 20260902070956 | 69 | 221 | 3.0 | 5.0 | 0.00 | 0.00 | 0.00 | 49 | 1008.4 |
| 20260902065946 | 69 | 223 | 3.0 | 5.0 | 0.00 | 0.00 | 0.00 | 49 | 1008.5 |
| 20260902064923 | 69 | 215 | 4.0 | 6.0 | 0.00 | 0.00 | 0.00 | 49 | 1008.5 |
| 20260902063915 | 69 | 212 | 4.0 | 6.0 | 0.00 | 0.00 | 0.00 | 49 | 1008.5 |
| 20260902062908 | 69 | 221 | 3.0 | 5.0 | 0.00 | 0.00 | 0.00 | 48 | 1008.5 |
| 20260902060723 | 69 | 212 | 3.0 | 5.0 | 0.00 | 0.00 | 0.00 | 48 | 1008.6 |
| 20260902054626 | 69 | 218 | 2.0 | 5.0 | 0.00 | 0.00 | 0.00 | 48 | 1008.7 |
| 20260902053621 | 70 | 4 | 2.0 | 4.0 | 0.00 | 0.00 | 0.00 | 48 | 1008.7 |
| 20260902052550 | 70 | 4 | 2.0 | 5.0 | 0.00 | 0.00 | 0.00 | 47 | 1008.6 |
| 20260902051518 | 71 | 215 | 3.0 | 6.0 | 0.00 | 0.00 | 0.00 | 47 | 1008.8 |
| 20260902050459 | 71 | 194 | 3.0 | 7.0 | 0.00 | 0.00 | 0.00 | 46 | 1008.8 |
| 20260902045519 | 71 | 219 | 4.0 | 7.0 | 0.00 | 0.00 | 0.00 | 46 | 1008.8 |